Location: �clusier
(49.9361°N, 2.7869°E)
Time: 02:40:57
(UTC+00:00)

Lacrosse 5 rocket - Visible Passes

Search period start: 23 October 2021 00:00
Search period end: 02 November 2021 00:00
Orbit: 463 x 629 km, 57.0° (Epoch: 22 October)

Date Brightness Start Highest point End Pass type
(mag) Time Alt. Az. Time Alt. Az. Time Alt. Az.
23 Oct 2.9 03:21:48 36° ENE 03:21:48 36° ENE 03:24:30 10° ENE visible
23 Oct 2.3 04:57:25 23° WNW 04:59:36 38° NNW 05:03:49 10° NE visible
24 Oct 3.2 03:15:52 30° NE 03:15:52 30° NE 03:18:11 10° ENE visible
24 Oct 2.4 04:51:28 24° WNW 04:53:23 35° N 04:57:32 10° ENE visible
25 Oct 3.5 03:09:53 25° NE 03:09:53 25° NE 03:11:52 10° NE visible
25 Oct 2.5 04:45:29 25° NW 04:47:10 34° N 04:51:17 10° ENE visible
26 Oct 3.8 03:03:53 22° NE 03:03:53 22° NE 03:05:32 10° NE visible
26 Oct 2.6 04:39:28 26° NW 04:40:57 33° N 04:45:03 10° ENE visible
27 Oct 4.0 02:57:51 19° NE 02:57:51 19° NE 02:59:13 10° NE visible
27 Oct 2.6 04:33:27 27° NW 04:34:45 32° N 04:38:49 10° ENE visible
28 Oct 4.2 02:51:49 16° NE 02:51:49 16° NE 02:52:54 10° NE visible
28 Oct 2.6 04:27:25 28° NNW 04:28:32 32° N 04:32:36 10° ENE visible
29 Oct 4.4 02:45:48 14° NE 02:45:48 14° NE 02:46:35 10° NE visible
29 Oct 2.6 04:21:24 30° NNW 04:22:19 33° N 04:26:25 10° ENE visible
30 Oct 4.5 02:39:46 13° NE 02:39:46 13° NE 02:40:17 10° NE visible
30 Oct 2.6 04:15:22 31° NNW 04:16:06 34° N 04:20:13 10° ENE visible
30 Oct 1.8 05:51:24 10° NW 05:55:49 68° NNE 06:00:23 10° ESE visible
31 Oct 4.7 02:33:46 11° NE 02:33:46 11° NE 02:34:00 10° NE visible
31 Oct 2.6 04:09:22 34° N 04:09:53 35° N 04:14:02 10° ENE visible
31 Oct 1.6 05:45:04 10° NW 05:49:31 79° NNE 05:54:06 10° ESE visible
01 Nov 2.5 04:03:24 37° N 04:03:38 37° NNE 04:07:52 10° E visible
01 Nov 1.5 05:39:00 12° WNW 05:43:11 88° SSW 05:47:46 10° SE visible
